This is the latest recevied weather packets stored in our database for station/object W4OTS. If no packets are shown the sender has not sent any weather packets the latest 10 day(s).
| Time | Temp. | Humidity | Pressure | Rain* | Wind** | Luminosity | Snow |
|---|---|---|---|---|---|---|---|
| 1777970016 | 12.78° C | 75% | 1017.2 hPa | 0 mm | - | 0 W/m² | - |
| 1777969712 | 12.78° C | 75% | 1017 hPa | 0 mm | - | 0 W/m² | - |
| 1777969408 | 12.78° C | 74% | 1017 hPa | 0 mm | - | 0 W/m² | - |
| 1777969105 | 12.78° C | 74% | 1017 hPa | 0 mm | - | 0 W/m² | - |
| 1777968802 | 13.33° C | 72% | 1016.9 hPa | 0 mm | - | 0 W/m² | - |
| 1777968499 | 12.78° C | 73% | 1017 hPa | 0 mm | - | 0 W/m² | - |
| 1777968194 | 12.78° C | 72% | 1017 hPa | 0 mm | - | 0 W/m² | - |
| 1777967890 | 12.78° C | 72% | 1016.9 hPa | 0 mm | - | 0 W/m² | - |
| 1777967587 | 13.33° C | 72% | 1017 hPa | 0 mm | - | 0 W/m² | - |
| 1777967284 | 13.33° C | 73% | 1016.8 hPa | 0 mm | - | 0 W/m² | - |
| 1777966982 | 13.33° C | 71% | 1016.8 hPa | 0 mm | - | 0 W/m² | - |
| 1777966679 | 13.33° C | 70% | 1016.6 hPa | 0 mm | - | 0 W/m² | - |
| 1777966377 | 13.33° C | 70% | 1016.7 hPa | 0 mm | - | 0 W/m² | - |
| 1777966073 | 13.89° C | 70% | 1016.8 hPa | 0 mm | - | 0 W/m² | - |
| 1777965770 | 13.89° C | 69% | 1016.6 hPa | 0 mm | - | 0 W/m² | - |
| 1777965465 | 13.89° C | 69% | 1016.7 hPa | 0 mm | - | 0 W/m² | - |
| 1777965162 | 13.89° C | 69% | 1016.9 hPa | 0 mm | - | 0 W/m² | - |
| 1777964860 | 13.89° C | 69% | 1016.9 hPa | 0 mm | - | 0 W/m² | - |
| 1777964556 | 13.89° C | 68% | 1016.8 hPa | 0 mm | - | 0 W/m² | - |
| 1777964251 | 13.89° C | 67% | 1016.7 hPa | 0 mm | - | 0 W/m² | - |
| 1777963949 | 14.44° C | 68% | 1016.9 hPa | 0 mm | - | 0 W/m² | - |
| 1777963646 | 14.44° C | 66% | 1016.8 hPa | 0 mm | - | 0 W/m² | - |
| 1777963344 | 14.44° C | 67% | 1016.9 hPa | 0 mm | - | 0 W/m² | - |
| 1777963041 | 13.89° C | 68% | 1016.7 hPa | 0 mm | - | 0 W/m² | - |
| 1777962737 | 14.44° C | 67% | 1016.8 hPa | 0 mm | - | 0 W/m² | - |
* Rain latest hour (hover to see other rain measurements)
** Current wind speed in m/s (hover to see current wind gust speed)